[[{"header":{"parameterUnit":"m.s-1","parameterCategory":1,"la1":30.2991,"la2":30.254,"lo1":-89.0895,"lo2":-89.0444,"dy":0.0017,"dx":0.0017,"nx":28,"ny":28,"refTime":"2025-08-20T21:00:00:Z","depth":0,"parameterNumber":2,"parameterNumberName":"U-component_of_WINDS"},"data":[0,0,0,0,0,0,0,0,0,0,0,0,0,0,0,0,0,0,0,0,0,0,0,0,0,0,0,0,0,0,0,0,0,0,0,0,0,0,0,0,0,0,0,0,0,0,0,0,0,0,0,0,0,0,0,0,0,0,1.5726,1.5727,0,1.5808,1.5809,1.581,1.5761,1.5759,1.5756,1.5754,1.584,1.5845,1.5849,0,0,0,0,0,0,0,0,0,0,0,0,0,1.5529,1.5533,1.5726,1.5727,1.5728,1.5808,1.5809,1.581,1.5761,1.5758,1.5756,1.5753,1.5839,1.5844,1.5849,0,0,0,0,0,0,0,0,0,0,0,0,0,1.5613,1.5534,1.5726,1.5713,1.5713,1.5808,1.5809,1.581,1.5762,1.5758,1.5755,1.5752,1.5837,1.5843,1.585,1.5963,0,0,1.5871,1.5874,0,0,0,0,0,0,0,0,1.5608,1.562,1.5714,1.5714,1.5714,1.577,1.5771,1.5861,1.5763,1.5743,1.5754,1.575,1.582,1.5828,1.5851,1.5967,1.597,1.5871,1.5875,1.5878,1.588,0,0,0,0,0,0,0,1.5603,1.5617,1.5758,1.5715,1.5716,1.5704,1.5712,1.5788,1.5801,1.5745,1.5741,1.5752,1.5819,1.5845,1.5853,1.5972,1.5871,1.5877,1.5881,1.5884,1.6183,1.6187,0,0,0,0,0,0,1.5597,1.5612,1.5756,1.5761,1.5651,1.571,1.5719,1.5756,1.58,1.5803,1.5755,1.5749,1.5835,1.5845,1.5856,1.599,1.5878,1.5885,1.5888,1.618,1.6184,1.6189,0,0,0,0,0,0,1.5593,1.5611,1.5753,1.5686,1.5703,1.5718,1.5759,1.576,1.5785,1.5807,1.5809,1.5778,1.5833,1.5846,1.5936,1.5993,1.5888,1.5894,1.6175,1.6181,1.6186,1.6261,0,0,0,0,0,0,1.5588,1.561,1.5652,1.5687,1.5707,1.5832,1.5763,1.5764,1.5796,1.579,1.583,1.5833,1.5831,1.5926,1.5943,1.6,1.5899,1.617,1.6178,1.6185,1.6253,1.6268,1.6281,0,0,0,0,0,1.5581,1.567,1.5654,1.5672,1.576,1.5835,1.5846,1.5841,1.5801,1.5844,1.5858,1.5832,1.5984,1.5936,1.5954,1.6014,1.6166,1.6176,1.6184,1.6247,1.6266,1.6281,0,0,0,0,0,0,1.5643,1.5675,1.5658,1.576,1.5795,1.5826,1.5881,1.5861,1.5908,1.5901,1.5893,1.5902,1.5996,1.6014,1.5961,1.6125,1.6069,1.6082,1.6111,1.6128,1.6142,1.6136,1.5905,0,0,0,0,0,1.5668,1.5725,1.575,1.5839,1.5857,1.5866,1.5898,1.5892,1.5928,1.5942,1.5963,1.6,1.6056,1.6093,1.6145,1.6255,1.6264,1.6306,1.632,1.6331,1.6343,1.6402,1.6421,1.6217,1.6217,1.6217,0,0,1.5721,1.5746,1.5783,1.5852,1.5878,1.5938,1.5879,1.5945,1.599,1.5953,1.6039,1.6055,1.6096,1.6196,1.6242,1.6214,1.64,1.6342,1.6351,1.6357,1.6413,1.6433,1.645,1.6223,1.6222,1.6221,0,0,1.585,1.5874,1.595,1.5977,1.6017,1.6022,1.6041,1.6075,1.6084,1.617,1.6144,1.6197,1.6293,1.6323,1.6351,1.649,1.6468,1.6508,1.6581,1.664,1.6656,1.667,1.672,1.6738,1.6519,1.6519,1.6519,0,1.5911,1.6001,1.5992,1.6061,1.6092,1.606,1.6137,1.6164,1.622,1.6243,1.621,1.6331,1.6356,1.6463,1.6497,1.652,1.6541,1.6504,1.6654,1.6668,1.6681,1.6729,1.6748,1.6524,1.6523,1.6523,1.6522,0,1.6075,1.6137,1.6194,1.6248,1.6285,1.6358,1.6361,1.64,1.639,1.6399,1.6487,1.6516,1.6574,1.6598,1.6589,1.6705,1.6686,1.6654,1.6597,1.6706,1.675,1.6769,1.653,1.6529,1.6527,1.6526,0,0,1.6246,1.6292,1.6314,1.6338,1.6379,1.6427,1.6499,1.6554,1.6589,1.6628,1.6688,1.677,1.674,1.6772,1.6766,1.6817,1.6926,1.6779,1.678,1.6806,1.7056,1.708,1.7101,1.6911,1.6914,1.6917,1.7052,0,1.6377,1.6501,1.6495,1.6611,1.6669,1.6639,1.6701,1.6733,1.6743,1.6794,1.6805,1.6864,1.682,1.6839,1.6888,1.6902,1.6976,1.6892,1.6968,1.697,1.6959,1.7125,1.7151,1.7277,1.707,1.7073,1.7075,0,1.6547,1.6591,1.6713,1.6745,1.6769,1.6825,1.6876,1.6925,1.6961,1.6965,1.7,1.6985,1.7058,1.6998,1.7099,1.7042,1.7072,1.7084,1.7089,1.7096,1.703,1.7138,1.7317,1.7337,1.7102,1.71,1.7098,0,1.666,1.675,1.6835,1.6856,1.6896,1.6936,1.6954,1.6987,1.7021,1.7065,1.7087,1.714,1.7169,1.721,1.721,1.7167,1.7313,1.7253,1.7318,1.7319,1.7351,1.735,1.754,1.737,1.7369,1.7369,1.7369,0,1.6808,1.6884,1.6886,1.6938,1.7022,1.7015,1.7099,1.7113,1.7142,1.7197,1.7174,1.7226,1.7223,1.7276,1.7277,1.736,1.7373,1.7379,1.7379,1.7382,1.7381,1.7402,1.7394,1.7374,1.7373,1.7372,1.7371,0,1.695,1.6954,1.7044,1.7074,1.7083,1.7144,1.717,1.7219,1.7227,1.7296,1.7312,1.7325,1.7386,1.739,1.746,1.7461,1.7563,1.7552,1.755,1.7549,1.7614,1.7608,1.7825,1.7854,1.7664,1.7666,1.7668,0,1.7044,1.7102,1.7138,1.7172,1.7193,1.7249,1.7283,1.7278,1.7315,1.736,1.7405,1.7463,1.751,1.7609,1.7625,1.7679,1.767,1.7742,1.7678,1.7679,1.7672,1.7669,1.7675,1.7755,1.7757,1.7759,1.776,0,1.7212,1.7211,1.7261,1.7312,1.7353,1.7392,1.7429,1.7459,1.7458,1.7501,1.7562,1.7599,1.767,1.7729,1.7782,1.7802,1.7782,1.778,1.7798,1.7803,1.7799,1.7803,1.7585,1.7775,1.7774,1.7773,1.7772,1.7771,1.7334,1.7384,1.7416,1.7473,1.7499,1.7534,1.7583,1.7595,1.7647,1.7704,1.7698,1.7766,1.7801,1.7869,1.7893,1.7947,1.7923,1.7949,1.7956,1.7963,1.797,1.779,1.7957,1.7957,1.7956,1.7956,1.7955,0,1.7501,1.7521,1.7572,1.7624,1.7668,1.7644,1.7683,1.7722,1.7783,1.7816,1.7862,1.7933,1.799,1.801,1.8065,1.8105,1.8097,1.8119,1.8117,1.8122,1.7988,1.7967,1.8125,1.8125,1.8125,1.8125,1.8125,1.8125,1.7594,1.7677,1.768,1.7776,1.7794,1.7861,1.7886,1.7918,1.7944,1.8024,1.8071,1.8083,1.8111,1.8168,1.8219,1.8224,1.8246,1.8273,1.8273,1.8148,1.8131,1.8115,1.8095,1.8277,1.8277,1.8402,1.8404,1.8404]},{"header":{"parameterUnit":"m.s-1","parameterCategory":1,"la1":30.2991,"la2":30.254,"lo1":-89.0895,"lo2":-89.0444,"dy":0.0017,"dx":0.0017,"nx":28,"ny":28,"refTime":"2025-08-20T21:00:00:Z","depth":0,"parameterNumber":3,"parameterNumberName":"V-component_of_WINDS"},"data":[0,0,0,0,0,0,0,0,0,0,0,0,0,0,0,0,0,0,0,0,0,0,0,0,0,0,0,0,0,0,0,0,0,0,0,0,0,0,0,0,0,0,0,0,0,0,0,0,0,0,0,0,0,0,0,0,0,0,-1.341,-1.3411,0,-1.3467,-1.3468,-1.3469,-1.3498,-1.3498,-1.3498,-1.3498,-1.3554,-1.3556,-1.3557,0,0,0,0,0,0,0,0,0,0,0,0,0,-1.3324,-1.3325,-1.341,-1.3411,-1.3411,-1.3467,-1.3468,-1.3469,-1.3498,-1.3498,-1.3498,-1.3498,-1.3554,-1.3556,-1.3557,0,0,0,0,0,0,0,0,0,0,0,0,0,-1.3369,-1.3325,-1.341,-1.3433,-1.3436,-1.3467,-1.3468,-1.3469,-1.3498,-1.3498,-1.3498,-1.3498,-1.3553,-1.3555,-1.3558,-1.357,0,0,-1.3564,-1.3565,0,0,0,0,0,0,0,0,-1.3366,-1.3372,-1.3429,-1.3431,-1.3434,-1.3476,-1.3458,-1.3503,-1.3498,-1.3474,-1.3498,-1.3498,-1.3528,-1.3532,-1.3543,-1.3573,-1.3575,-1.3564,-1.3566,-1.3567,-1.3567,0,0,0,0,0,0,0,-1.3363,-1.337,-1.3433,-1.343,-1.3433,-1.344,-1.3446,-1.3467,-1.35,-1.3476,-1.3479,-1.3485,-1.3529,-1.3541,-1.3544,-1.3576,-1.3564,-1.3566,-1.3568,-1.3568,-1.3619,-1.3619,0,0,0,0,0,0,-1.3357,-1.3367,-1.3431,-1.3434,-1.34,-1.3441,-1.3448,-1.3462,-1.35,-1.3506,-1.3485,-1.3486,-1.3537,-1.3542,-1.3546,-1.3564,-1.3567,-1.3569,-1.357,-1.3619,-1.3619,-1.3619,0,0,0,0,0,0,-1.3355,-1.3362,-1.3429,-1.3401,-1.341,-1.3443,-1.3458,-1.3463,-1.3475,-1.3507,-1.3512,-1.349,-1.3537,-1.3543,-1.3564,-1.3566,-1.357,-1.3572,-1.3619,-1.3619,-1.3619,-1.3598,0,0,0,0,0,0,-1.3352,-1.3361,-1.3367,-1.3401,-1.3412,-1.3446,-1.3458,-1.3465,-1.3479,-1.3481,-1.3513,-1.3518,-1.3538,-1.3561,-1.3566,-1.3569,-1.3573,-1.3619,-1.3619,-1.3619,-1.3599,-1.3597,-1.3596,0,0,0,0,0,-1.3349,-1.3358,-1.3367,-1.3374,-1.3419,-1.3446,-1.3452,-1.3474,-1.3479,-1.3484,-1.3505,-1.3517,-1.3565,-1.3563,-1.3569,-1.3573,-1.3619,-1.3619,-1.3619,-1.3599,-1.3598,-1.3596,0,0,0,0,0,0,-1.3322,-1.3363,-1.3373,-1.3394,-1.3416,-1.3451,-1.3459,-1.3472,-1.3493,-1.3494,-1.352,-1.3527,-1.3546,-1.3561,-1.3558,-1.3587,-1.3593,-1.3594,-1.3576,-1.3575,-1.3573,-1.3569,-1.3575,0,0,0,0,0,-1.3318,-1.3337,-1.3372,-1.3387,-1.3398,-1.3426,-1.3438,-1.3454,-1.3478,-1.3487,-1.3509,-1.3531,-1.3551,-1.3564,-1.3584,-1.3601,-1.3609,-1.3607,-1.3605,-1.3604,-1.3605,-1.3616,-1.3615,-1.3619,-1.3619,-1.3619,0,0,-1.3311,-1.3336,-1.3346,-1.3382,-1.3401,-1.3419,-1.3434,-1.3452,-1.3466,-1.349,-1.3511,-1.3528,-1.3554,-1.3574,-1.3583,-1.3587,-1.3606,-1.3604,-1.3603,-1.3605,-1.3616,-1.3615,-1.3615,-1.3619,-1.3619,-1.3619,0,0,-1.3307,-1.3328,-1.3343,-1.3362,-1.3392,-1.3411,-1.3414,-1.3447,-1.3459,-1.3481,-1.35,-1.3516,-1.355,-1.3568,-1.3582,-1.3585,-1.3598,-1.3591,-1.3584,-1.3594,-1.3594,-1.3594,-1.3595,-1.3596,-1.3592,-1.3592,-1.3592,0,-1.3294,-1.3324,-1.3349,-1.3367,-1.3382,-1.3405,-1.342,-1.3437,-1.3471,-1.3481,-1.3485,-1.3528,-1.3548,-1.3571,-1.3572,-1.3583,-1.3587,-1.3587,-1.3592,-1.3592,-1.3593,-1.3594,-1.3595,-1.3591,-1.3591,-1.3591,-1.3591,0,-1.3306,-1.3326,-1.3335,-1.3368,-1.3384,-1.34,-1.3427,-1.344,-1.3454,-1.3473,-1.3495,-1.3519,-1.3545,-1.3551,-1.3565,-1.3577,-1.3579,-1.3587,-1.3594,-1.3591,-1.3593,-1.3594,-1.3589,-1.359,-1.359,-1.359,0,0,-1.3287,-1.3334,-1.3337,-1.3353,-1.3387,-1.3402,-1.342,-1.3446,-1.3456,-1.3479,-1.3494,-1.3522,-1.3531,-1.3546,-1.3562,-1.357,-1.3572,-1.3578,-1.3579,-1.3576,-1.3587,-1.3581,-1.3581,-1.3581,-1.3581,-1.3581,-1.3585,0,-1.3288,-1.3321,-1.3344,-1.3368,-1.3386,-1.3409,-1.3424,-1.3446,-1.3464,-1.3482,-1.3501,-1.3521,-1.353,-1.354,-1.355,-1.357,-1.3575,-1.357,-1.3594,-1.3595,-1.3587,-1.3582,-1.3576,-1.3578,-1.3586,-1.3586,-1.3587,0,-1.3293,-1.3317,-1.3342,-1.3375,-1.3384,-1.3397,-1.3423,-1.344,-1.3466,-1.3478,-1.3496,-1.3512,-1.3531,-1.3536,-1.3562,-1.3558,-1.357,-1.3581,-1.3582,-1.3585,-1.359,-1.3585,-1.358,-1.358,-1.3588,-1.3588,-1.3588,0,-1.3277,-1.3314,-1.3335,-1.3347,-1.3386,-1.3395,-1.3411,-1.3437,-1.3451,-1.3474,-1.3483,-1.3507,-1.352,-1.3538,-1.356,-1.3562,-1.3584,-1.3591,-1.3594,-1.3594,-1.3598,-1.3597,-1.3594,-1.3605,-1.3605,-1.3605,-1.3605,0,-1.3275,-1.329,-1.3328,-1.334,-1.3358,-1.3384,-1.34,-1.3418,-1.3441,-1.3457,-1.3478,-1.3492,-1.3521,-1.3539,-1.3556,-1.3575,-1.3581,-1.3591,-1.3596,-1.3589,-1.3588,-1.3597,-1.3597,-1.3605,-1.3605,-1.3605,-1.3605,0,-1.3259,-1.3285,-1.3309,-1.3344,-1.3353,-1.3364,-1.3394,-1.3407,-1.3426,-1.3446,-1.3452,-1.3482,-1.3504,-1.3529,-1.3558,-1.357,-1.3588,-1.3595,-1.358,-1.3582,-1.3584,-1.3584,-1.3587,-1.3588,-1.3598,-1.3598,-1.3598,0,-1.3257,-1.3269,-1.3306,-1.3319,-1.3335,-1.3355,-1.337,-1.3396,-1.3411,-1.3442,-1.345,-1.3475,-1.3495,-1.3529,-1.3553,-1.3576,-1.3583,-1.3583,-1.3587,-1.358,-1.3584,-1.3583,-1.3584,-1.3581,-1.3581,-1.3581,-1.3581,0,-1.3249,-1.3262,-1.3283,-1.3309,-1.3327,-1.3348,-1.337,-1.3379,-1.341,-1.3425,-1.3449,-1.3465,-1.3496,-1.352,-1.3546,-1.3562,-1.3577,-1.358,-1.3582,-1.3575,-1.3566,-1.3571,-1.3576,-1.3579,-1.3579,-1.358,-1.358,-1.358,-1.324,-1.3252,-1.328,-1.3304,-1.3323,-1.3344,-1.3358,-1.3379,-1.3399,-1.3428,-1.3442,-1.3465,-1.3491,-1.3528,-1.3544,-1.3562,-1.3566,-1.3569,-1.357,-1.357,-1.3569,-1.3563,-1.3567,-1.3567,-1.3567,-1.3567,-1.3567,0,-1.3234,-1.3253,-1.3275,-1.3306,-1.3324,-1.3337,-1.3362,-1.3376,-1.3397,-1.342,-1.344,-1.3468,-1.3491,-1.3517,-1.3541,-1.3551,-1.3558,-1.3557,-1.3556,-1.356,-1.3563,-1.3559,-1.355,-1.355,-1.355,-1.355,-1.355,-1.355,-1.3233,-1.3254,-1.327,-1.3301,-1.332,-1.3344,-1.3358,-1.3377,-1.3395,-1.3425,-1.3445,-1.3462,-1.3486,-1.3513,-1.3535,-1.3542,-1.355,-1.3546,-1.3555,-1.3558,-1.3559,-1.3561,-1.3557,-1.3548,-1.3548,-1.355,-1.355,-1.355]}]]